Regional Weather Roundup
Issued by NWS

Home | Current Version | Previous Version | Text Only | Print | Product List | Glossary Off
Versions: 1 2 3 4 5 6 7 8 9 10 11 12 13 14 15 16 17 18 19 20 21 22 23 24 25 26 27 28 29 30 31 32 33 34 35 36 37 38 39 40 41 42 43 44 45 46 47 48 49 50

000
ASUS43 KTOP 110859
RWRKS

WEATHER ROUNDUP FOR KANSAS
NATIONAL WEATHER SERVICE GOODLAND KS
300 AM CST MON DEC 11 2017

NOTE:  "FAIR" INDICATES FEW OR NO CLOUDS BELOW 12,000 FEET WITH NO
SIGNIFICANT WEATHER AND/OR OBSTRUCTIONS TO VISIBILITY.

KSZ001>006-013>018-027>032-041>047-111000-
NORTHWEST KANSAS

CITY           SKY/WX    TMP DP  RH WIND       PRES   REMARKS
GOODLAND       CLOUDY    30   2  30 W13       30.24S WCI  20
HAYS           CLEAR     35   9  33 W12       30.16F WCI  27
HILL CITY      CLEAR     39   9  29 W10G18    30.17F WCI  32
RUSSELL        CLEAR     32  12  43 SW13      30.13F WCI  22
$$

KSZ061>065-074>080-084>089-111000-
SOUTHWEST KANSAS

CITY           SKY/WX    TMP DP  RH WIND       PRES   REMARKS
DODGE CITY     CLOUDY    39   6  25 W13       30.22S WCI  31
GARDEN CITY    CLOUDY    26   4  38 W10       30.21F WCI  16
GREAT BEND     CLEAR     33   9  36 W10       30.17F WCI  25
LIBERAL        CLOUDY    36   7  29 W10       30.25S WCI  28
$$

KSZ066>073-081>083-090>101-111000-
SOUTHEAST KANSAS

CITY           SKY/WX    TMP DP  RH WIND       PRES   REMARKS
CHANUTE        CLEAR     36  21  54 S6        30.12F
COFFEYVILLE    CLEAR     30  22  72 S3        30.15F
HUTCHINSON     CLEAR     36  13  38 W9        30.14F
MEDICINE LODGE   N/A     37  13  37 NW5       30.19F
NEWTON         CLEAR     39  13  34 SW9       30.13F
PARSONS        CLEAR     25  22  88 CALM      30.15F
WICHITA INTL   CLEAR     36  16  44 W9        30.15F
WICHITA JABRA  CLEAR     42  15  33 W9        30.14F
WICHITA MCCONL CLEAR     44  12  27 W5        30.14F
WINFIELD       CLEAR     30  21  69 CALM      30.17F
$$

KSZ007>012-019>026-033>040-048>060-102>105-111000-
NORTHEAST KANSAS

CITY           SKY/WX    TMP DP  RH WIND       PRES   REMARKS
CONCORDIA      CLEAR     38  15  39 W12       30.08S WCI  30
EMPORIA        CLEAR     43  16  33 W8        30.09F
LAWRENCE       CLEAR     22  19  89 CALM      30.04F
MANHATTAN      CLEAR     37  18  46 SW10      30.08F WCI  30
OLATHE IND     CLEAR     37  21  52 SW8       30.05F
OLATHE EXE     CLEAR     38  21  50 SW8       30.05F
SALINA         CLEAR     45  12  26 W9        30.10F
TOPEKA BILLARD CLEAR     27  24  89 CALM      30.05F
TOPEKA FORBES  CLEAR     39  20  46 SW7       30.04F
$$



USA.gov is the U.S. government's official web portal to all federal, state and local government web resources and services.